Flag for Slovakia Weather past 2 weeks in Prievidza, Slovakia

Now
46 °F

Passing clouds.


Feels Like: 44 °F
Forecast: 23 / 48 °F
Wind: 5 mph from North

Location: Prievidza

Current Time: Mar 6, 2015 at 1:37:25 PM

Latest Report: Mar 6, 2015 at 1:00 PM


Visibility: 22 mi

Pressure: 30.52 "Hg

Humidity: 38%

Dew point: 21 °F

Location of PrievidzaLocation

Historic Weather in Prievidza — Graph

°F

Prievidza temperature yesterday

Maximum temperature yesterday: 47 °F (at 2:00 PM)
Minimum temperature yesterday: 25 °F (at 6:00 AM)
Average temperature yesterday: 36 °F

Past Weeks' High & Low Weather Summary

 TemperatureHumidityPressure
High51 °F (Mar 1, 1:00 PM)96% (Feb 24, 2:00 AM)30.54 "Hg (Feb 24, 2:00 AM)
Low22 °F (Feb 20, 7:00 AM)33% (Mar 3, 4:00 PM)29.64 "Hg (Feb 23, 5:00 PM)
Average40 °F77%30.02 "Hg
* Reported Feb 19 12:00 Noon — Mar 6 12:00 Noon, Prievidza, Weather by CustomWeather, © 2015

Note: Actual official high and low records may vary slightly from our data, if they occured in-between our weather recording intervals... More about our weather records

Advertising

Prievidza weather history for previous 24 hours

 ConditionsComfort  
Time TempWeatherWind HumidityBarometerVisibility
12:00 PM
Fri, Mar 6
44 °FPassing clouds.3 mph39%30.53 "Hg22 mi
11:00 AM43 °FPassing clouds.5 mph41%30.54 "Hg22 mi
10:00 AM42 °FPassing clouds.6 mph43%30.53 "Hg19 mi
9:00 AM40 °FPassing clouds.3 mph50%30.53 "Hg16 mi
8:00 AM37 °FPassing clouds.3 mph61%30.52 "Hg14 mi
7:00 AM30 °FChilly.1 mph79%30.52 "HgN/A
6:00 AM34 °FChilly.3 mph69%30.50 "Hg10 mi
5:00 AM34 °FChilly.5 mph70%30.49 "Hg12 mi
4:00 AM32 °FChilly.N/A72%30.49 "Hg9 mi
3:00 AM35 °FChilly.5 mph60%30.48 "Hg17 mi
2:00 AM35 °FChilly.2 mph63%30.48 "Hg19 mi
1:00 AM36 °FChilly.3 mph63%30.47 "Hg17 mi
12:00 AM34 °FChilly.N/A72%30.48 "Hg12 mi
10:00 PM
Thu, Mar 5
36 °FChilly.N/A65%30.45 "Hg17 mi
9:00 PM36 °FPassing clouds.N/A67%30.45 "Hg22 mi
8:00 PM38 °FPassing clouds.3 mph62%30.44 "Hg28 mi
7:00 PM38 °FPassing clouds.3 mph63%30.43 "Hg31 mi
6:00 PM39 °FPassing clouds.3 mph61%30.40 "Hg31 mi
5:00 PM42 °FScattered clouds.7 mph53%30.37 "Hg25 mi
4:00 PM43 °FScattered clouds.6 mph47%30.36 "Hg28 mi
3:00 PM44 °FPartly sunny.5 mph39%30.35 "Hg25 mi
2:00 PM47 °FPartly sunny.7 mph36%30.35 "Hg25 mi
1:00 PM46 °FPartly sunny.3 mph40%30.35 "Hg31 mi
Weather by CustomWeather, © 2015

See weather overviewHow to use our weather pages